星链-31530 (STARLINK-31530 )

导读

STARLINK-31530是美国SpaceX公司星链星座的第二批次卫星,于北京时间2024年3月25日发射入轨。星链计划旨在构建全球低轨卫星互联网,为偏远地区、航空海运等场景提供高速宽带服务。该卫星部署于近地轨道,配备相控阵天线与星间激光链路,具备自主防撞能力,可降低信号延迟,提升全球网络覆盖稳定性,助力星链系统服务拓展与星座组网完善。

基本信息
目录编号:
59322
目录名称:
STARLINK-31530
国际标识:
2024-057C
轨道中心:
EARTH
卫星名称:
星链-31530
卫星全名:
星链-31530 (STARLINK-31530 )
卫星状态:
在轨 (已飞行815 天)
发射日期:
2024-03-25 UTC
国别 :
美国 (US)
星等 :
--
轨道信息
数据来源 国际轨道数据
星历时间: 2026-06-16T11:04:51+0800
2天前
查看轨道信息
半长轴: 6739.785km
偏心率: 0.0027291
轨道倾角: 42.991°
近地点辐角 315.474°
升交点赤经 324.947°
平近点角 44.394°
近地点: 343.254km
远地点: 380.042km
周期: 91.776分钟
每日圈数: 15.690391
详细信息
固有亮度:
5
最大亮度:
0.3
卫星平台:
Starlink v2.0 mini
覆盖范围:
全球
运营商:
太空探索技术公司
运营商所在国:
美国
制造商(研发单位):
太空探索技术公司
制造商所在国:
美国
使用方式:
暂无
卫星简介
星链(Starlink)计划是由太空探索技术公司(SpaceX)提出的一个巨型低轨卫星互联网星座项目,计划在2019年至2024年间在太空搭建由约1.2万颗卫星组成的“星链”网络,其中1584颗将部署在地球上空550千米处的近地轨道,并从2020年开始工作。该卫星仍在工作。
2D轨道图
3D轨道图
轨道高度分析图
轨道倾角分析图
轨道综合分析图
查看轨道综合分析图